User: anonymous   Login
Location: Fort Wayne
(41.1310°N, 85.1290°W)
Time: 14:57:51
(UTC-04:00)
Language:

Cosmos 2227 Rocket - Orbit

View from above orbital plane
View from above orbital plane
View from above satellite
View from above satellite

Ground track
Ground track

The orbit data is extracted from the following two-line orbital elements,

1 22285U 92093B   17174.59733674 +.00000239 +00000-0 +14778-3 0  9990
2 22285 071.0204 198.8342 0002574 141.0625 219.0683 14.15012774263166
Epoch (UTC): 23 June 2017 14:20:09
Eccentricity: 0.0002574
inclination: 71.0204°
perigee height: 840 km
apogee height: 844 km
right ascension of ascending node: 198.8342°
argument of perigee: 141.0625°
revolutions per day: 14.15012774
mean anomaly at epoch: 219.0683°
orbit number at epoch: 26316

The dashed part of the orbit path shows where the satellite is in the earth's shadow,  

DLR